Lid_Strength_Index
9 9 8 8 8 8 8 8 8 8 9 9 9 8 8 8 9 8 7 6 6 5 5 6 7 8 9 11 11 12 11 11
9 9 8 7 8 8 8 8 8 8 8 9 9 9 8 9 9 9 9 8 7 7 6 6 6 8 9 10 11 11 11 11
9 9 9 8 7 8 8 8 8 8 8 9 9 9 10 10 9 9 9 9 9 8 7 7 7 7 9 9 10 11 11 11
9 9 9 9 8 7 7 8 8 8 8 9 9 9 10 11 10 10 11 11 9 8 8 7 8 7 8 9 10 10 11 11
9 9 9 8 8 8 8 7 8 8 8 9 10 10 10 11 11 11 11 11 11 10 11 11 11 10 11 9 9 10 10 11
9 9 9 8 8 8 8 8 8 9 9 11 10 10 11 11 12 12 11 11 11 11 11 10 10 8 8 9 9 10 11 11
8 8 9 9 9 9 9 9 8 9 11 11 12 12 12 12 13 13 12 11 11 11 11 11 9 8 8 8 9 11 11 12
9 9 9 9 9 10 10 9 10 10 11 12 12 13 13 13 14 13 13 11 12 11 11 11 10 9 8 8 9 10 11 11
8 9 9 9 11 12 12 12 12 11 11 11 13 14 13 13 14 13 11 11 11 11 11 11 10 9 8 8 9 9 11 11
9 10 11 13 13 13 13 13 13 12 11 10 11 13 13 14 13 10 11 11 11 11 11 11 11 9 9 9 9 10 10 11
11 12 14 13 13 13 13 13 13 12 11 10 10 12 13 11 11 10 10 10 10 11 11 11 10 9 9 9 10 10 10 11
12 13 14 13 13 13 12 12 11 10 9 9 9 10 9 9 9 10 10 10 11 10 10 11 10 10 9 8 10 10 10 10
10 12 13 13 11 11 10 10 10 9 9 9 8 8 7 8 8 8 9 10 11 10 10 9 9 9 8 8 8 8 10 10
11 11 11 10 10 11 11 11 11 12 12 10 9 8 8 7 8 8 8 9 9 10 10 10 9 9 8 8 9 8 9 10
13 13 13 12 12 12 12 12 13 14 13 11 9 8 8 7 7 7 7 8 8 9 10 10 9 9 9 9 9 10 9 9
13 14 14 13 13 13 13 14 15 15 14 12 10 9 8 8 7 8 7 7 7 7 8 9 10 9 8 9 10 9 9 10
14 14 15 14 14 14 15 15 17 16 15 13 11 9 8 8 8 6 6 6 6 6 7 8 7 7 8 9 9 9 8 9
17 16 16 16 16 15 15 15 16 17 15 14 13 12 11 9 8 9 7 6 6 6 6 6 6 6 7 9 9 9 8 9
19 19 19 18 18 17 16 16 17 16 16 15 15 14 12 10 9 9 9 9 8 5 6 5 5 6 7 8 9 10 9 9
22 22 21 21 20 18 17 17 17 17 16 15 14 13 13 12 11 10 10 10 9 8 7 7 6 6 7 8 10 11 10 9